Mercury, NV

7:47 AM PDT on March 25, 2017 (GMT -0700)
Mercury

Weather History for KDRA - October, 2011

Change the Weather History Date:

Monday, October 17, 2011

  Actual Average Record
Temperature  
Mean Temperature 70 °F 63 °F  
Max Temperature 84 °F 77 °F 91 °F (1988)
Min Temperature 57 °F 49 °F 37 °F (1980)
Degree Days  
Heating Degree Days 0    
Cooling Degree Days 4    
Growing Degree Days 20 (Base 50)    
Moisture  
Dew Point 30 °F    
Average Humidity 24    
Maximum Humidity 37    
Minimum Humidity 14    
Precipitation  
Precipitation 0.00 in 0.01 in 0.37 in (2015)
Month to date precipitation 0.18  
Year to date precipitation 4.75  
Sea Level Pressure  
Sea Level Pressure 30.05 in    
Wind  
Wind Speed 7 mph (ENE)    
Max Wind Speed 17 mph    
Max Gust Speed 24 mph    
Visibility 10 miles    
Events      
T = Trace of Precipitation, MM = Missing Value Source: NWS Daily Summary

Daily Weather History Graph

Daily Weather History Graph

Search for Another Location

Airport or City:

Trip Planner

Search our weather history database for the weather conditions in past years. The results will help you decide how hot, cold, wet, or windy it might be!

Date:

Astronomy

Oct. 17, 2011 Rise Set
Actual Time 6:53 AM PDT 6:05 PM PDT
Civil Twilight 6:26 AM PDT 6:31 PM PDT
Nautical Twilight 5:56 AM PDT 7:01 PM PDT
Astronomical Twilight 5:27 AM PDT 7:31 PM PDT
Moon 9:56 PM PDT (10/17) 11:56 AM PDT (10/17)
Length of Visible Light 12h 04m
Length of Day
11h 12m
Waning Gibbous, 73% of the Moon is Illuminated
Oct 17
Waning Gibbous
Oct 19
Last Quarter
Oct 26
New
Nov 2
First Quarter
Nov 10
Full

Hourly Weather History & Observations

Time (PDT) Temp. Dew Point Humidity Pressure Visibility Wind Dir Wind Speed Gust Speed Precip Events Conditions
12:53 AM 63.0 °F 30.0 °F 29% 29.96 in 10.0 mi NNE 5.8 mph - N/A   Clear
1:53 AM 60.1 °F 32.0 °F 35% 29.97 in 10.0 mi Calm Calm - N/A   Clear
2:53 AM 57.9 °F 32.0 °F 37% 29.98 in 10.0 mi Calm Calm - N/A   Clear
3:53 AM 60.1 °F 32.0 °F 35% 29.99 in 10.0 mi ESE 4.6 mph - N/A   Clear
4:53 AM 60.1 °F 32.0 °F 35% 30.01 in 10.0 mi Calm Calm - N/A   Clear
5:53 AM 62.1 °F 34.0 °F 35% 30.02 in 10.0 mi North 5.8 mph - N/A   Clear
6:53 AM 68.0 °F 35.1 °F 30% 30.05 in 10.0 mi ENE 13.8 mph 18.4 mph N/A   Clear
7:53 AM 66.9 °F 37.0 °F 33% 30.08 in 10.0 mi ENE 11.5 mph 18.4 mph N/A   Clear
8:53 AM 68.0 °F 37.9 °F 33% 30.12 in 10.0 mi NNE 17.3 mph - N/A   Clear
9:53 AM 71.1 °F 39.0 °F 31% 30.13 in 10.0 mi NE 17.3 mph 24.2 mph N/A   Clear
10:53 AM 75.9 °F 39.0 °F 26% 30.12 in 10.0 mi ENE 10.4 mph - N/A   Clear
11:53 AM 77.0 °F 37.9 °F 24% 30.11 in 10.0 mi ENE 12.7 mph 19.6 mph N/A   Clear
12:53 PM 80.1 °F 30.0 °F 16% 30.08 in 10.0 mi NNE 13.8 mph 24.2 mph N/A   Clear
1:53 PM 82.0 °F 28.0 °F 14% 30.05 in 10.0 mi NE 5.8 mph 17.3 mph N/A   Clear
2:53 PM 81.0 °F 33.1 °F 18% 30.04 in 10.0 mi Variable 3.5 mph - N/A   Clear
3:53 PM 82.0 °F 32.0 °F 16% 30.03 in 10.0 mi East 12.7 mph 17.3 mph N/A   Clear
4:53 PM 82.0 °F 28.0 °F 14% 30.02 in 10.0 mi NNE 8.1 mph - N/A   Clear
5:53 PM 78.1 °F 28.0 °F 16% 30.03 in 10.0 mi ENE 5.8 mph - N/A   Clear
6:34 PM 75.2 °F 24.8 °F 15% 30.15 in 10.0 mi East 9.2 mph - N/A   Partly Cloudy
6:53 PM 71.1 °F 21.9 °F 16% 30.05 in 10.0 mi ENE 6.9 mph - N/A   Clear
7:53 PM 69.1 °F 21.9 °F 17% 30.06 in 10.0 mi East 9.2 mph - N/A   Clear
8:53 PM 71.1 °F 24.1 °F 17% 30.06 in 10.0 mi NE 9.2 mph - N/A   Clear
9:53 PM 69.1 °F 24.1 °F 18% 30.06 in 10.0 mi NNE 13.8 mph - N/A   Clear
10:53 PM 64.9 °F 24.1 °F 21% 30.06 in 10.0 mi East 8.1 mph - N/A   Clear
11:53 PM 66.0 °F 23.0 °F 20% 30.06 in 10.0 mi East 8.1 mph - N/A   Clear